When you browse on this site, cookies collect data to enhance your experience and personalize the content and advertising you see.
Visit our Privacy Policy to learn more. By continuing to use the site, you agree to this use of cookies and data.
  • In Hungary
  • List of Countries
  • For 7 days
  • Water Temperature
  • Satellite Maps
  • Weather Map
  • News
  • Weather Widgets
  • user-avatar
    Login

    Hourly Weather Mons

    Today, 18 January, Friday

    Time Temperature Precipitation Wind Pressure Humidity
    00:00 0°C° 0 mm 3 mps 760 mmHg 89%
    01:00 0°C° 0 mm 3 mps 760 mmHg 90%
    02:00 0°C° 0 mm 3 mps 760 mmHg 91%
    03:00 -1°C° 0 mm 2 mps 761 mmHg 92%
    04:00 -1°C° 0 mm 2 mps 761 mmHg 92%
    05:00 -1°C° 0 mm 2 mps 761 mmHg 92%
    06:00 -1°C° 0 mm 2 mps 761 mmHg 92%
    07:00 +2°C° 0 mm 1 mps 761 mmHg 91%
    08:00 +2°C° 0 mm 1 mps 762 mmHg 90%
    09:00 +3°C° 0 mm 1 mps 762 mmHg 89%
    10:00 +4°C° 0 mm 1 mps 762 mmHg 85%
    11:00 +5°C° 0 mm 1 mps 762 mmHg 80%
    12:00 +6°C° 0 mm 1 mps 762 mmHg 76%
    13:00 +5°C° 0 mm 1 mps 761 mmHg 77%
    14:00 +5°C° 0 mm 1 mps 761 mmHg 78%
    15:00 +5°C° 0 mm 1 mps 761 mmHg 78%
    16:00 +3°C° 0 mm 2 mps 761 mmHg 81%
    17:00 +2°C° 0 mm 2 mps 761 mmHg 84%
    18:00 +1°C° 0 mm 2 mps 761 mmHg 87%
    19:00 +1°C° 0 mm 2 mps 761 mmHg 87%
    20:00 -1°C° 0 mm 3 mps 761 mmHg 87%
    21:00 -1°C° 0 mm 3 mps 761 mmHg 88%
    22:00 -1°C° 0 mm 3 mps 760 mmHg 87%
    23:00 -1°C° 0 mm 3 mps 760 mmHg 87%

    Tomorrow, 19 January, Saturday

    Time Temperature Precipitation Wind Pressure Humidity
    00:00 -2°C° 0 mm 3 mps 760 mmHg 86%
    01:00 -2°C° 0 mm 3 mps 760 mmHg 85%
    02:00 -2°C° 0 mm 3 mps 760 mmHg 84%
    03:00 -3°C° 0 mm 4 mps 759 mmHg 83%
    04:00 -3°C° 0 mm 4 mps 759 mmHg 82%
    05:00 -3°C° 0 mm 4 mps 759 mmHg 81%
    06:00 -3°C° 0 mm 4 mps 758 mmHg 81%
    07:00 -3°C° 0 mm 4 mps 758 mmHg 79%
    08:00 -2°C° 0 mm 4 mps 758 mmHg 77%
    09:00 -2°C° 0 mm 4 mps 758 mmHg 75%
    10:00 -1°C° 0 mm 4 mps 757 mmHg 69%
    11:00 0°C° 0 mm 4 mps 757 mmHg 63%
    12:00 +3°C° 0 mm 4 mps 757 mmHg 57%
    13:00 +1°C° 0 mm 4 mps 756 mmHg 59%
    14:00 +2°C° 0 mm 3 mps 756 mmHg 61%
    15:00 +2°C° 0 mm 3 mps 755 mmHg 62%
    16:00 +1°C° 0 mm 3 mps 755 mmHg 65%
    17:00 0°C° 0 mm 3 mps 755 mmHg 68%
    18:00 0°C° 0 mm 3 mps 755 mmHg 71%
    19:00 -1°C° 0 mm 3 mps 755 mmHg 71%
    20:00 -1°C° 0 mm 3 mps 755 mmHg 72%
    21:00 -1°C° 0 mm 3 mps 756 mmHg 72%
    22:00 -1°C° 0 mm 3 mps 756 mmHg 73%
    23:00 -1°C° 0 mm 2 mps 756 mmHg 74%

    Day after tomorrow, 20 January, Sunday

    Time Temperature Precipitation Wind Pressure Humidity
    00:00 -2°C° 0 mm 2 mps 756 mmHg 74%
    01:00 -2°C° 0 mm 2 mps 756 mmHg 75%
    02:00 -2°C° 0 mm 2 mps 756 mmHg 75%
    03:00 -2°C° 0 mm 2 mps 756 mmHg 76%
    04:00 -2°C° 0 mm 2 mps 756 mmHg 76%
    05:00 -2°C° 0 mm 2 mps 756 mmHg 77%
    06:00 -2°C° 0 mm 2 mps 756 mmHg 78%
    07:00 -2°C° 0 mm 2 mps 757 mmHg 76%
    08:00 -2°C° 0 mm 2 mps 757 mmHg 74%
    09:00 -1°C° 0 mm 2 mps 758 mmHg 73%
    10:00 +1°C° 0 mm 2 mps 758 mmHg 69%
    11:00 +2°C° 0 mm 2 mps 758 mmHg 65%
    12:00 +3°C° 0 mm 2 mps 759 mmHg 61%
    13:00 +3°C° 0 mm 2 mps 759 mmHg 62%
    14:00 +3°C° 0 mm 2 mps 759 mmHg 63%
    15:00 +2°C° 0 mm 2 mps 759 mmHg 65%
    16:00 +1°C° 0 mm 2 mps 760 mmHg 68%
    17:00 -1°C° 0 mm 2 mps 760 mmHg 70%
    18:00 -2°C° 0 mm 2 mps 761 mmHg 73%
    19:00 -2°C° 0 mm 2 mps 762 mmHg 74%
    20:00 -3°C° 0 mm 2 mps 762 mmHg 74%
    21:00 -1°C° 0 mm 1 mps 763 mmHg 74%
    22:00 -1°C° 0 mm 1 mps 763 mmHg 75%
    23:00 -1°C° 0 mm 1 mps 763 mmHg 76%

    21 January, Monday

    Time Temperature Precipitation Wind Pressure Humidity
    00:00 -1°C° 0 mm 1 mps 764 mmHg 76%
    01:00 -1°C° 0 mm 1 mps 764 mmHg 76%
    02:00 -1°C° 0 mm 1 mps 764 mmHg 77%
    03:00 -1°C° 0 mm 1 mps 764 mmHg 77%
    04:00 -1°C° 0 mm 1 mps 765 mmHg 76%
    05:00 -1°C° 0 mm 1 mps 765 mmHg 76%
    06:00 -1°C° 0 mm 1 mps 765 mmHg 75%
    07:00 -1°C° 0 mm 1 mps 765 mmHg 72%
    08:00 -1°C° 0 mm 0 mps 765 mmHg 69%
    09:00 -1°C° 0 mm 0 mps 766 mmHg 66%
    10:00 0°C° 0 mm 0 mps 766 mmHg 61%
    11:00 +1°C° 0 mm 0 mps 765 mmHg 55%
    12:00 +2°C° 0 mm 0 mps 765 mmHg 50%
    13:00 +3°C° 0 mm 1 mps 765 mmHg 52%
    14:00 +3°C° 0 mm 1 mps 764 mmHg 54%
    15:00 +3°C° 0 mm 1 mps 764 mmHg 56%
    16:00 +2°C° 0 mm 1 mps 763 mmHg 59%
    17:00 -1°C° 0 mm 2 mps 763 mmHg 61%
    18:00 -2°C° 0 mm 2 mps 763 mmHg 64%
    19:00 -2°C° 0 mm 2 mps 762 mmHg 66%
    20:00 -4°C° 0 mm 3 mps 762 mmHg 68%
    21:00 -4°C° 0 mm 3 mps 761 mmHg 70%
    22:00 -3°C° 0 mm 4 mps 760 mmHg 70%
    23:00 -4°C° 0 mm 5 mps 759 mmHg 70%

    22 January, Tuesday

    Time Temperature Precipitation Wind Pressure Humidity
    00:00 -4°C° 0 mm 6 mps 758 mmHg 71%
    01:00 -3°C° 0 mm 6 mps 756 mmHg 72%
    02:00 -3°C° 0 mm 7 mps 755 mmHg 74%
    03:00 -2°C° 0 mm 8 mps 753 mmHg 76%
    04:00 -2°C° 0.6 mm 8 mps 752 mmHg 80%
    05:00 -2°C° 0.6 mm 8 mps 750 mmHg 84%
    06:00 -1°C° 0.6 mm 9 mps 749 mmHg 88%
    07:00 -1°C° 1.1 mm 7 mps 749 mmHg 90%
    08:00 -1°C° 1.1 mm 6 mps 748 mmHg 92%
    09:00 0°C° 1.1 mm 4 mps 748 mmHg 94%
    10:00 0°C° 0.3 mm 4 mps 748 mmHg 91%
    11:00 0°C° 0.3 mm 4 mps 747 mmHg 89%
    12:00 +1°C° 0.3 mm 3 mps 747 mmHg 87%
    13:00 +1°C° 0 mm 3 mps 747 mmHg 87%
    14:00 0°C° 0 mm 3 mps 746 mmHg 87%
    15:00 0°C° 0 mm 3 mps 746 mmHg 87%
    16:00 -1°C° 0 mm 3 mps 746 mmHg 88%
    17:00 -1°C° 0 mm 3 mps 746 mmHg 89%
    18:00 -2°C° 0 mm 3 mps 746 mmHg 90%
    19:00 -2°C° 0 mm 3 mps 746 mmHg 91%
    20:00 -4°C° 0 mm 3 mps 746 mmHg 91%
    21:00 -4°C° 0 mm 3 mps 746 mmHg 92%
    22:00 -4°C° 0 mm 3 mps 745 mmHg 92%
    23:00 -4°C° 0 mm 3 mps 745 mmHg 92%

    23 January, Wednesday

    Time Temperature Precipitation Wind Pressure Humidity
    00:00 -3°C° 0 mm 2 mps 745 mmHg 92%
    01:00 -3°C° 0 mm 2 mps 744 mmHg 92%
    02:00 -3°C° 0 mm 2 mps 744 mmHg 92%
    03:00 -3°C° 0 mm 2 mps 744 mmHg 92%
    04:00 -3°C° 0 mm 2 mps 744 mmHg 92%
    05:00 -3°C° 0 mm 2 mps 744 mmHg 93%
    06:00 -4°C° 0 mm 2 mps 744 mmHg 93%
    07:00 -3°C° 0 mm 2 mps 744 mmHg 93%
    08:00 -3°C° 0 mm 2 mps 744 mmHg 93%
    09:00 -3°C° 0 mm 2 mps 744 mmHg 94%
    10:00 -2°C° 0 mm 2 mps 744 mmHg 92%
    11:00 +1°C° 0 mm 1 mps 744 mmHg 91%
    12:00 +2°C° 0 mm 1 mps 744 mmHg 89%
    13:00 +2°C° 0 mm 1 mps 744 mmHg 90%
    14:00 +2°C° 0 mm 1 mps 744 mmHg 91%
    15:00 +1°C° 0 mm 0 mps 744 mmHg 91%
    16:00 0°C° 0 mm 0 mps 744 mmHg 92%
    17:00 -1°C° 0 mm 0 mps 745 mmHg 92%
    18:00 -2°C° 0 mm 0 mps 745 mmHg 92%
    19:00 -1°C° 0 mm 1 mps 745 mmHg 93%
    20:00 -1°C° 0 mm 1 mps 745 mmHg 93%
    21:00 -1°C° 0 mm 1 mps 745 mmHg 93%
    22:00 -1°C° 0 mm 1 mps 746 mmHg 94%
    23:00 -3°C° 0 mm 2 mps 746 mmHg 94%
    Show more